Regional Weather Roundup
Issued by NWS

Home | Current Version | Previous Version | Text Only | Print | Product List | Glossary On
Versions: 1 2 3 4 5 6 7 8 9 10 11 12 13 14 15 16 17 18 19 20 21 22 23 24 25 26 27 28 29 30 31 32 33 34 35 36 37 38 39 40 41 42 43 44 45 46 47 48 49 50
000
ASUS43 KDTX 241210
RWRMI
MICHIGAN HOURLY REGIONAL WEATHER ROUNDUP
NATIONAL WEATHER SERVICE DETROIT/PONTIAC MI
800 AM EDT TUE MAY 24 2016

NOTE: "FAIR" INDICATES FEW OR NO CLOUDS BELOW 12,000 FEET WITH NO
SIGNIFICANT WEATHER AND/OR OBSTRUCTION TO VISIBILITY.

MIZ047>049-052>055-059>063-066>070-074>076-081>083-241300-
SOUTHEAST LOWER MICHIGAN

CITY           SKY/WX    TMP DP  RH WIND       PRES   REMARKS
ADRIAN         SUNNY     54  47  77 W5        30.06R
6HR MIN TEMP:  45; 6HR MAX TEMP:  54;

ALMA           SUNNY     56  46  70 SW10      30.01S
ANN ARBOR      SUNNY     54  52  93 CALM      30.04S
BAD AXE        SUNNY     56  45  65 CALM      30.02R
CARO           SUNNY     52  46  80 CALM      30.01S
DETROIT CITY   SUNNY     61  48  62 W5        30.05R
6HR MIN TEMP:  51; 6HR MAX TEMP:  61;

DETROIT        MOSUNNY   60  51  72 CALM      30.05R
6HR MIN TEMP:  52; 6HR MAX TEMP:  60;

FLINT          SUNNY     62  46  55 S3        30.03R
6HR MIN TEMP:  46; 6HR MAX TEMP:  62;

GROSSE ILE     SUNNY     61  54  77 CALM      30.03S
HILLSDALE      SUNNY     64  34  33 SW6       30.05R
6HR MIN TEMP:  49; 6HR MAX TEMP:  64;

HOWELL         SUNNY     56  50  78 CALM      30.04R

CITY           SKY/WX    TMP DP  RH WIND       PRES   REMARKS
JACKSON        SUNNY     57  46  66 SW5       30.04R
6HR MIN TEMP:  46; 6HR MAX TEMP:  57;

LAMBERTVILLE   SUNNY     58  55  89 CALM      30.06R
6HR MIN TEMP:  46; 6HR MAX TEMP:  58;

LANSING        SUNNY     60  42  51 SW6       30.03R
6HR MIN TEMP:  49; 6HR MAX TEMP:  60;

LAPEER         FAIR      51  47  87 CALM      30.03S
6HR MIN TEMP:  41; 6HR MAX TEMP:  51;

MASON          SUNNY     57  43  59 S6        30.04R
MONROE         SUNNY     56  53  88 SW3       30.05R
6HR MIN TEMP:  46; 6HR MAX TEMP:  56;

MT. CLEMENS    SUNNY     61  52  72 SW7       30.03R
6HR MIN TEMP:  47; 6HR MAX TEMP:  61;

PONTIAC        SUNNY     59  48  67 CALM      30.04R
6HR MIN TEMP:  48; 6HR MAX TEMP:  59;

PORT HOPE        N/A     63  40  42 SW7       29.98R
6HR MIN TEMP:  56; 6HR MAX TEMP:  63;

PORT HURON     SUNNY     55  52  88 SW3       30.03S
TRI CITIES     SUNNY     60  40  47 SW7       30.01R
6HR MIN TEMP:  55; 6HR MAX TEMP:  62;

MIDLAND        FAIR      54  47  79 CALM      29.99S
6HR MIN TEMP:  43; 6HR MAX TEMP:  54;

TROY           SUNNY     59  47  63 SW3       30.06R
SAGINAW HB     SUNNY     55  43  62 S3        30.01R
$$
MIZ043>046-050>051-056>058-064>065-071>073-077>080-241300-
SOUTHWEST LOWER MICHIGAN

CITY           SKY/WX    TMP DP  RH WIND       PRES   REMARKS
BATTLE CREEK   SUNNY     58  43  57 SW6       30.04R
6HR MIN TEMP:  48; 6HR MAX TEMP:  58;

BENTON HARBOR  SUNNY     63  43  48 S6        30.01R
6HR MIN TEMP:  55; 6HR MAX TEMP:  63;

BIG RAPIDS     SUNNY     53  50  92 CALM      29.98S
6HR MIN TEMP:  45; 6HR MAX TEMP:  53;

COLDWATER      SUNNY     60  45  57 SW3       30.05R
6HR MIN TEMP:  45; 6HR MAX TEMP:  60;

FREMONT        FAIR      57  43  58 CALM      29.98S
HOLLAND        SUNNY     66  45  46 SW9       30.00R
6HR MIN TEMP:  54; 6HR MAX TEMP:  66;

GRAND RAPIDS   MOSUNNY   59  45  59 S5        30.01R
6HR MIN TEMP:  52; 6HR MAX TEMP:  59;

IONIA          FAIR      61  39  44 S3        30.01R
6HR MIN TEMP:  51; 6HR MAX TEMP:  61;

KALAMAZOO      SUNNY     59  44  57 S5        30.04R
6HR MIN TEMP:  48; 6HR MAX TEMP:  59;

LUDINGTON      SUNNY     64  45  49 SW6       29.96R
6HR MIN TEMP:  47; 6HR MAX TEMP:  64;

MARSHALL       SUNNY     59  42  53 SW3       30.03S
6HR MIN TEMP:  46; 6HR MAX TEMP:  59;

MOUNT PLEASANT SUNNY     53  52  97 CALM      29.98S
6HR MIN TEMP:  46; 6HR MAX TEMP:  53;

MUSKEGON       PTSUNNY   65  43  44 SW12      29.98S
6HR MIN TEMP:  54; 6HR MAX TEMP:  67;

SOUTH HAVEN    SUNNY     66  42  41 S7        30.00S
$$
MIZ016>042-241300-
NORTHERN LOWER MICHIGAN

CITY           SKY/WX    TMP DP  RH WIND       PRES   REMARKS
ALPENA         SUNNY     56  49  77 CALM      29.96R
6HR MIN TEMP:  42; 6HR MAX TEMP:  56;

BEAVER ISLAND  MOSUNNY   64  39  39 SW14G22   29.91S
6HR MIN TEMP:  61; 6HR MAX TEMP:  65;

BELLAIRE       SUNNY     57  48  73 CALM      29.94S
6HR MIN TEMP:  43; 6HR MAX TEMP:  57;

CADILLAC       SUNNY     56  46  67 CALM      29.97S
CHARLEVOIX     MOSUNNY   66  38  35 S8        29.95R
FRANKFORT      SUNNY     67  44  43 SW6       29.94R
GAYLORD        SUNNY     67  37  33 SW10      29.96R
6HR MIN TEMP:  50; 6HR MAX TEMP:  67;

GRAYLING       SUNNY     60  45  57 CALM      29.97S
6HR MIN TEMP:  40; 6HR MAX TEMP:  60;

HARBOR SPRINGS MOSUNNY   60  46  59 CALM      29.93S
HOUGHTON LAKE  SUNNY     63  42  46 VRB7      29.98S
6HR MIN TEMP:  44; 6HR MAX TEMP:  63;

MANISTEE       SUNNY     57  41  54 E3        29.95S
OSCODA         SUNNY     58  45  62 SW6       29.97S
6HR MIN TEMP:  44; 6HR MAX TEMP:  58;

PELLSTON       MOSUNNY   65  39  38 E8        29.92S
6HR MIN TEMP:  43; 6HR MAX TEMP:  65;

ROGERS CITY    SUNNY     65  38  37 SW7       29.94R
TRAVERSE CITY  PTSUNNY   67  38  34 SW7       29.92S
6HR MIN TEMP:  57; 6HR MAX TEMP:  67;

$$
MIZ007>008-015-241300-
EASTERN UPPER MICHIGAN

CITY           SKY/WX    TMP DP  RH WIND       PRES   REMARKS
KINROSS          N/A     55  45  67 SE5       29.92S
6HR MIN TEMP:  46; 6HR MAX TEMP:  55;

MACKINAC ISLAN MOSUNNY   61  42  48 S5        29.91F
6HR MIN TEMP:  49; 6HR MAX TEMP:  61;

NEWBERRY       CLOUDY    58  42  53 S14       29.89S
6HR MIN TEMP:  54; 6HR MAX TEMP:  58;

S. S. MARIE    SUNNY     54  42  64 SE3       29.92S
6HR MIN TEMP:  49; 6HR MAX TEMP:  54;

MUNISING         N/A     61  45  55 SE6       29.86R
6HR MIN TEMP:  54; 6HR MAX TEMP:  61;

$$
MIZ004>006-011>014-085-241300-
CENTRAL UPPER MICHIGAN

CITY           SKY/WX    TMP DP  RH WIND       PRES   REMARKS
MANISTIQUE     SUNNY     54  47  78 S7        29.89R
6HR MIN TEMP:  51; 6HR MAX TEMP:  55;

ESCANABA       CLOUDY    61  46  59 W5        29.89R
6HR MIN TEMP:  50; 6HR MAX TEMP:  63;

MENOMINEE      CLOUDY    63  48  59 CALM      29.91R
6HR MIN TEMP:  61; 6HR MAX TEMP:  63;

SAWYER-GWINN   PTSUNNY   59  48  67 CALM      29.89R
$$
MIZ001>003-009>011-084-241300-
WESTERN UPPER MICHIGAN

CITY           SKY/WX    TMP DP  RH WIND       PRES   REMARKS
IRON MOUNTAIN  CLOUDY    62  52  69 NW5       29.89R
6HR MIN TEMP:  56; 6HR MAX TEMP:  62;

HOUGHTON       PTSUNNY   62  58  86 W7        29.86R
6HR MIN TEMP:  61; 6HR MAX TEMP:  63; 6HR PCP: TRACE;

COPPER HARBOR    N/A     56  55  97 CALM      29.84S
6HR MIN TEMP:  51; 6HR MAX TEMP:  63;

IRONWOOD       CLOUDY    61  61 100 CALM      29.85R
6HR MIN TEMP:  59; 6HR MAX TEMP:  61;

$$

ABBREVIATIONS USED IN REMARKS
   TC - TEMPERATURE IN CELSIUS
  WCI - WIND CHILL INDEX
   HX - HEAT INDEX
  VSB - VISIBILITY




USA.gov is the U.S. government's official web portal to all federal, state and local government web resources and services.